sat.trackr.live / text

‹ back to catalog

STARLINK-11660 [DTC]

NORAD 63761 · 2025-089L

PAYLOAD ACTIVE UNKNOWN

§ Identity

Operator
Country
US
Launch date
2025-04-29
Launch site
AFETR
Launch vehicle
Mass (kg)
RCS (m²)

Purposes: comms

External: N2YO · Heavens-Above · Gunter

§ Orbital elements

Epoch: 2026-05-25T03:41:23.884224Z

Period
91.66 min
Inclination
42.9978°
Eccentricity
0.0000862
Mean motion
15.70946965 rev/d
Perigee alt
355.6 km
Apogee alt
356.8 km
Semi-major
6,734.3 km
B*
1.1958e-3
RAAN
191.1309°
Arg perigee
223.8720°
Mean anomaly
136.2079°
Rev number
6,211

§ Raw data

STARLINK-11660 [DTC]1 63761U 25089L   26145.15374866  .00156614  00000+0  11958-2 0  99932 63761  42.9978 191.1309 0000862 223.8720 136.2079 15.70946965 62118

JSON: /api/v1/satellites/63761 · /tle

For live sub-satellite position, see the globe view (requires WebGL).

§ Visibility from observer

Set your observer location to see the next 7 days of passes ≥ 10°. The values pass through the URL so the page stays shareable.

No JS? Fill the form by hand. The geolocation button needs JavaScript.